TimeMDT,TemperatureF,Dew PointF,Humidity,Sea Level PressureIn,VisibilityMPH,Wind Direction,Wind SpeedMPH,Gust SpeedMPH,PrecipitationIn,Events,Conditions,WindDirDegrees,DateUTC
12:53 AM,32.0,25.0,75,29.87,10.0,NNW,13.8,-,N/A,,Clear,330,2013-03-18 06:53:00
1:53 AM,30.9,24.1,76,29.89,10.0,NW,16.1,-,N/A,,Clear,320,2013-03-18 07:53:00
2:53 AM,28.9,23.0,78,29.91,10.0,WNW,9.2,-,N/A,,Clear,300,2013-03-18 08:53:00
3:53 AM,28.9,23.0,78,29.90,10.0,West,8.1,-,N/A,,Clear,280,2013-03-18 09:53:00
4:53 AM,27.0,21.0,78,29.91,10.0,West,9.2,-,N/A,,Clear,280,2013-03-18 10:53:00
5:53 AM,27.0,21.0,78,29.93,10.0,WNW,9.2,-,N/A,,Clear,300,2013-03-18 11:53:00
6:53 AM,26.1,19.9,78,29.94,10.0,West,10.4,-,N/A,,Clear,280,2013-03-18 12:53:00
7:53 AM,28.9,19.0,67,29.97,10.0,West,8.1,-,N/A,,Clear,270,2013-03-18 13:53:00
8:53 AM,33.1,21.0,61,29.98,10.0,NW,13.8,20.7,N/A,,Clear,310,2013-03-18 14:53:00
9:53 AM,39.9,19.0,43,29.98,10.0,NW,17.3,24.2,N/A,,Clear,320,2013-03-18 15:53:00
10:53 AM,42.1,17.1,37,29.99,10.0,NW,17.3,24.2,N/A,,Clear,320,2013-03-18 16:53:00
11:53 AM,45.0,16.0,31,30.00,10.0,NW,16.1,27.6,N/A,,Clear,310,2013-03-18 17:53:00
12:53 PM,46.9,12.0,24,29.99,10.0,NW,12.7,27.6,N/A,,Clear,310,2013-03-18 18:53:00
1:53 PM,48.0,10.9,22,29.96,10.0,NW,19.6,28.8,N/A,,Partly Cloudy,320,2013-03-18 19:53:00
2:53 PM,48.9,10.0,21,29.94,10.0,NNW,16.1,24.2,N/A,,Clear,330,2013-03-18 20:53:00
3:53 PM,48.9,10.0,21,29.93,10.0,NNW,10.4,-,N/A,,Clear,340,2013-03-18 21:53:00
4:53 PM,48.0,10.0,22,29.93,10.0,NNW,8.1,-,N/A,,Mostly Cloudy,330,2013-03-18 22:53:00
5:53 PM,45.0,10.9,25,29.94,10.0,WNW,8.1,-,N/A,,Mostly Cloudy,300,2013-03-18 23:53:00
6:53 PM,42.1,15.1,34,29.95,10.0,North,3.5,-,N/A,,Mostly Cloudy,350,2013-03-19 00:53:00
7:53 PM,37.0,19.9,50,29.97,10.0,ENE,5.8,-,N/A,,Overcast,70,2013-03-19 01:53:00
8:53 PM,37.9,18.0,45,29.98,10.0,East,10.4,-,N/A,,Overcast,80,2013-03-19 02:53:00
9:53 PM,37.0,16.0,42,30.00,10.0,East,11.5,-,N/A,,Overcast,90,2013-03-19 03:53:00
10:53 PM,34.0,12.9,42,30.03,10.0,East,15.0,20.7,N/A,,Mostly Cloudy,90,2013-03-19 04:53:00
11:53 PM,30.0,14.0,51,30.06,10.0,East,8.1,-,N/A,,Scattered Clouds,80,2013-03-19 05:53:00